Location: Brookview Estates
(36.0476°N, 86.6931°W)
Time: 02:13:43
(UTC+00:00)

USA 238 DEB - Pass Details

Date: 30 March 2020
Orbit: 1017 x 1196 km, 63.4° (Epoch: 02 June)

Event Time Altitude Azimuth Distance (km) Brightness Sun altitude
Exits shadow 10:34:37 13° 230° (SW) 2,557 5.1 -12.9°
Maximum altitude 10:40:21 56° 306° (NW) 1,228 3.8 -11.8°
Drops below altitude 10° 10:47:03 10° 24° (NNE) 2,905 6.5 -10.4°
Sets 10:49:50 0° 29° (NNE) 3,890 7.3 -9.9°
